Content
SEND FEEDBACK

Daily
Averages
Monthly
Summary
Canada

QUEBEC CITY, QUEBEC


Home > North America > Canada > Quebec
Elevation: 239 feet     Latitude: 46 48N     Longitude: 071 23W

WEATHER
 
SELECT A DAY
Number of Records: 198,140;   Date Range: 6/30/96 - 12/20/14
 
SHARE

PRINT THIS DATA

[ ← Previous Day ]
WEATHER ALMANAC - SEPTEMBER 21, 2013
[ Next Day → ]
[ °C ]   °F
Weather ElementAverageHighLow
Temperature60.1 °F73.4 °F (1:00 pm)47 °F (8:00 am)
Dewpoint45.6 °F62 °F (5:00 pm) (7:00 pm)
Humidity75 %100 % (2:00 am)45 % (8:00 pm)
Wind Speed5.1 mph9.2 mph (1:00 am)
Weather ElementAverage
Visibility12.7 mi
Wind DirectionWNW (281.1 °)

Weather ElementTotal
Precipitation---
Heating Degree Days4.8 (Base 65)
Growing Degree Days10.2 (Base 50)
Averaged from 35 records on September 21, 2013
WEATHER CONDITIONS BREAKOUT
WIND DIRECTION BREAKOUT
WEATHER BY HOUR - SEPTEMBER 21, 2013
[ °C ]   °F
Local TimeTemperatureDewpointHumidityBarometerVisibilityWind DirectionWind SpeedGust SpeedPrecipitationEventsConditions
12:37 AM50.0 °F0.0 °F0.0 mi8.1 (2013°)0.00 inFog60
1:00 AM50.0 °F48.2 °F94 %29.92 in0.1 miENE (60°)9.2 mphFogFog
2:00 AM50.0 °F50.0 °F100 %29.91 in0.1 miENE (70°)4.6 mphFogFog
3:00 AM50.0 °F50.0 °F100 %29.89 in0.1 miNE (50°)8.1 mphFogFog
4:00 AM50.0 °F48.2 °F94 %29.88 in0.2 miNNE (20°)5.8 mphFogFog
5:00 AM48.0 °F48.0 °F100 %29.82 inNNE (20°)2.3 mph
5:00 AM48.2 °F48.2 °F100 %29.84 in0.2 miNNE (30°)5.8 mphFogFog
6:00 AM48.2 °F48.2 °F100 %29.83 in0.1 miNNE (30°)4.6 mphFogFog
6:22 AM48.2 °F0.0 °F0.0 mi4.6 (2013°)0.00 inFog50
6:48 AM48.2 °F0.0 °F0.0 mi4.6 (2013°)0.00 inFog10
7:00 AM48.2 °F48.2 °F100 %29.82 in0.2 miNNE (30°)5.8 mphFogFog
7:28 AM48.2 °F0.0 °F8.0 miNorth (10°)3.5 mphMostly Cloudy
8:00 AM47.0 °F47.0 °F100 %29.79 inNNW (340°)1.2 mph
8:00 AM50.0 °F50.0 °F100 %29.81 in12.0 miNNE (20°)5.8 mphMostly Cloudy
9:00 AM57.2 °F53.6 °F88 %29.79 in15.0 miENE (70°)5.8 mphMostly Cloudy
10:00 AM62.6 °F53.6 °F72 %29.77 in15.0 miNE (50°)5.8 mphMostly Cloudy
11:00 AM66.2 °F55.4 °F68 %29.73 in20.0 miEast (90°)4.6 mphMostly Cloudy
11:00 AM67.0 °F56.0 °F60 %29.71 inEast (80°)2.3 mph
12:00 PM69.8 °F55.4 °F60 %29.70 in20.0 miESE (110°)4.6 mphOvercast
1:00 PM73.4 °F57.2 °F57 %29.67 in20.0 miSSE (160°)6.9 mphMostly Cloudy
2:00 PM72.0 °F58.0 °F53 %29.62 inWest (260°)3.5 mph
2:00 PM71.6 °F59.0 °F64 %29.64 in25.0 miWest (280°)5.8 mphOvercast
3:00 PM71.6 °F59.0 °F64 %29.62 in30.0 miCalmMostly Cloudy
4:00 PM71.6 °F57.2 °F60 %29.60 in30.0 miSW (230°)2.3 mphMostly Cloudy
5:00 PM71.0 °F62.0 °F65 %29.57 inSSE (160°)3.5 mph
5:00 PM71.6 °F60.8 °F69 %29.59 in30.0 miSSW (210°)3.5 mphOvercast
6:00 PM68.0 °F55.4 °F64 %29.60 in30.0 miSW (220°)2.3 mphMostly Cloudy
7:00 PM68.0 °F50.0 °F52 %29.60 in30.0 miSSW (200°)9.2 mphOvercast
8:00 PM67.0 °F51.0 °F45 %29.58 inSE (140°)4.6 mph
8:00 PM66.2 °F50.0 °F56 %29.60 in15.0 miSSE (160°)5.8 mphOvercast
9:00 PM66.2 °F51.8 °F60 %29.60 in15.0 miSE (130°)6.9 mphOvercast
10:00 PM64.4 °F53.6 °F68 %29.59 in15.0 miSE (130°)6.9 mphOvercast
11:00 PM64.0 °F55.0 °F65 %29.54 inESE (120°)4.6 mph
11:00 PM64.4 °F55.4 °F73 %29.57 in15.0 miSE (140°)8.1 mphOvercast
11:47 PM64.4 °F0.0 °F10.0 miSouth (180°)8.1 mphRainLight Rain Showers
Hourly data recorded from CYQB, located miles away from Quebec City, Quebec







STORIES FROM OUR PARTNERS